sat.trackr.live / text

‹ back to catalog

STARLINK-30418

NORAD 57829 · 2023-138X

PAYLOAD ACTIVE UNKNOWN

§ Identity

Operator
Country
US
Launch date
2023-09-09
Launch site
AFETR
Launch vehicle
Mass (kg)
RCS (m²)

Purposes: comms

External: N2YO · Heavens-Above · Gunter

§ Orbital elements

Epoch: 2026-05-25T01:56:55.148640Z

Period
94.27 min
Inclination
43.0032°
Eccentricity
0.0001366
Mean motion
15.27560630 rev/d
Perigee alt
482.2 km
Apogee alt
484.0 km
Semi-major
6,861.2 km
B*
-1.7878e-5
RAAN
162.5680°
Arg perigee
281.4827°
Mean anomaly
78.5871°
Rev number
15,025

§ Raw data

STARLINK-304181 57829U 23138X   26145.08119385 -.00000754  00000+0 -17878-4 0  99932 57829  43.0032 162.5680 0001366 281.4827  78.5871 15.27560630150255

JSON: /api/v1/satellites/57829 · /tle

For live sub-satellite position, see the globe view (requires WebGL).

§ Visibility from observer

Set your observer location to see the next 7 days of passes ≥ 10°. The values pass through the URL so the page stays shareable.

No JS? Fill the form by hand. The geolocation button needs JavaScript.